Regional Weather Roundup
Issued by NWS

Home | Current Version | Previous Version | Graphics & Text | Print | Product List | Glossary On
Versions: 1 2 3 4 5 6 7 8 9 10 11 12 13 14 15 16 17 18 19 20 21 22 23 24 25 26 27 28 29 30 31 32 33 34 35 36 37 38 39 40 41 42 43 44 45 46 47 48 49 50
000
ASUS43 KIND 302159
RWRIN

WEATHER ROUNDUP FOR INDIANA
NATIONAL WEATHER SERVICE INDIANAPOLIS IN
600 PM EDT SAT APR 30 2016

NOTE: "FAIR" INDICATES FEW OR NO CLOUDS BELOW 12,000 FEET WITH NO
SIGNIFICANT WEATHER AND/OR OBSTRUCTIONS TO VISIBILITY.

* - STATION DOES NOT REPORT WEATHER SUCH AS PRECIPITATION OR FOG.

+ - STATION NOT QUALITY CONTROLLED BY THE NATIONAL WEATHER SERVICE.
    USE DATA WITH CAUTION...ESPECIALLY DEWPOINT AND RELATIVE
    HUMIDITY OBSERVATIONS.

INZ001>003-010>013-019-020-302300-
NORTHWEST INDIANA

CITY           SKY/WX    TMP DP  RH WIND       PRES   REMARKS
GARY /AIRPORT/ RAIN      50  50 100 E10       29.90F
RENSSELAER +   DRIZZLE   50  48  93 E15G24    29.87R
VALPARAISO     LGT RAIN  48  46  93 E18       29.88F FOG

$$

LMZ046-743>745-302300-
SOUTHERN LAKE MICHIGAN

STATION/POSITION TIME  TEMP    WIND        PRES    WAVE
                       AIR SEA DIR/SP/G            HT
                 (UTC) (F)     (DEG/KT/KT) (MB)    (FT)
BURNS HARBOR     2107   48      80/ 10/ 15 1013.5F
MICHIGAN CITY    2100   48      60/ 12/ 16   N/A

$$

INZ004-005-014>016-021>024-302300-
NORTH CENTRAL INDIANA

CITY           SKY/WX    TMP DP  RH WIND       PRES   REMARKS
GOSHEN         LGT RAIN  49  46  90 E14       29.93F FOG
SOUTH BEND     LGT RAIN  48  46  93 E15G23    29.93F FOG

$$

INZ006>009-017-018-025>027-302300-
NORTHEAST INDIANA

CITY           SKY/WX    TMP DP  RH WIND       PRES   REMARKS
ANGOLA *+      CLOUDY    46  36  66 E14       29.96F
FORT WAYNE     LGT RAIN  50  47  89 E16G23    29.92F

$$

INZ028-029-035-036-043>045-051>053-302300-
WEST CENTRAL INDIANA

CITY           SKY/WX    TMP DP  RH WIND       PRES   REMARKS
CRAWFORDSVL +  CLOUDY    57  57 100 SE13G18   29.84R
GREENCASTLE +  CLOUDY    59  59 100 SE9       29.84S
LAFAYETTE      LGT RAIN  54  52  93 E10       29.84F
TERRE HAUTE    CLOUDY    64  60  87 SE12      29.82R

$$

INZ030>032-037>040-046>048-054>057-064-065-302300-
CENTRAL INDIANA

CITY           SKY/WX    TMP DP  RH WIND       PRES   REMARKS
COLUMBUS       CLOUDY    59  59 100 SE5       29.89S
INDIANAPOLIS   LGT RAIN  59  57  93 SE15      29.82F
-EAGLE CREEK   CLOUDY    58  57  97 SE9       29.84F
KOKOMO *+      CLOUDY    52  46  82 E13       29.87S
SHELBYVILLE    CLOUDY    61  57  87 SE12      29.87F

$$

INZ033-034-041-042-049-050-058-059-302300-
EAST CENTRAL INDIANA

CITY           SKY/WX    TMP DP  RH WIND       PRES   REMARKS
MUNCIE         CLOUDY    55  52  89 SE13      29.91F FOG

$$

INZ060-061-067>069-081>083-085>088-302300-
SOUTHWEST INDIANA

CITY           SKY/WX    TMP DP  RH WIND       PRES   REMARKS
EVANSVILLE     CLOUDY    68  63  84 SE7       29.83S
HUNTINGBURG *+ CLOUDY    66  63  88 SE12      29.85F

$$

INZ062-063-066-070>080-084-089>092-302300-
SOUTH CENTRAL AND SOUTHEAST INDIANA

CITY           SKY/WX    TMP DP  RH WIND       PRES   REMARKS
BLOOMINGTON    CLOUDY    61  59  93 SE12      29.83F
MADISON *+     CLOUDY    63  59  88 CALM      29.93S
SEYMOUR +      CLOUDY    63  61  94 SE7       29.89F

$$





USA.gov is the U.S. government's official web portal to all federal, state and local government web resources and services.